Time,TemperatureF,DewpointF,PressureIn,WindDirection,WindDirectionDegrees,WindSpeedMPH,WindSpeedGustMPH,Humidity,HourlyPrecipIn,Conditions,Clouds,dailyrainin,SoftwareType,DateUTC
2013-05-28 00:03:00,76.0,44.0,29.65,West,259,0.0,0.0,32,0.00,,,0.00,Wunderground v.1.15,2013-05-28 07:03:00,
2013-05-28 00:08:00,75.6,42.8,29.65,WSW,257,0.0,1.0,31,0.00,,,0.00,Wunderground v.1.15,2013-05-28 07:08:00,
2013-05-28 00:13:00,76.1,43.3,29.65,SW,231,0.0,0.0,31,0.00,,,0.00,Wunderground v.1.15,2013-05-28 07:13:00,
2013-05-28 00:18:00,76.6,43.7,29.65,SSE,152,0.0,1.0,31,0.00,,,0.00,Wunderground v.1.15,2013-05-28 07:18:00,
2013-05-28 00:23:00,77.2,43.4,29.65,SW,221,0.0,0.0,30,0.00,,,0.00,Wunderground v.1.15,2013-05-28 07:23:00,
2013-05-28 00:29:00,77.7,43.8,29.64,WNW,287,0.0,1.0,30,0.00,,,0.00,Wunderground v.1.15,2013-05-28 07:29:00,
2013-05-28 00:34:00,77.9,43.1,29.64,SW,233,0.0,0.0,29,0.00,,,0.00,Wunderground v.1.15,2013-05-28 07:34:00,
2013-05-28 00:39:00,78.1,43.2,29.64,East,96,1.0,1.0,29,0.00,,,0.00,Wunderground v.1.15,2013-05-28 07:39:00,
2013-05-28 00:44:00,78.4,44.4,29.64,WNW,291,1.0,1.0,30,0.00,,,0.00,Wunderground v.1.15,2013-05-28 07:44:00,
2013-05-28 00:49:00,78.5,43.6,29.64,SSE,163,0.0,1.0,29,0.00,,,0.00,Wunderground v.1.15,2013-05-28 07:49:00,
2013-05-28 00:54:00,78.4,43.5,29.64,SW,231,0.0,1.0,29,0.00,,,0.00,Wunderground v.1.15,2013-05-28 07:54:00,
2013-05-28 00:59:00,78.3,43.4,29.64,SSW,201,0.0,1.0,29,0.00,,,0.00,Wunderground v.1.15,2013-05-28 07:59:00,
2013-05-28 01:05:00,78.2,43.3,29.64,SSW,207,1.0,1.0,29,0.00,,,0.00,Wunderground v.1.15,2013-05-28 08:05:00,
2013-05-28 01:10:00,78.3,43.4,29.64,WNW,300,0.0,0.0,29,0.00,,,0.00,Wunderground v.1.15,2013-05-28 08:10:00,
2013-05-28 01:15:00,78.4,43.5,29.63,West,270,0.0,0.0,29,0.00,,,0.00,Wunderground v.1.15,2013-05-28 08:15:00,
2013-05-28 01:20:00,78.3,44.3,29.64,WSW,252,0.0,0.0,30,0.00,,,0.00,Wunderground v.1.15,2013-05-28 08:20:00,
2013-05-28 01:25:00,78.1,44.1,29.63,SSE,147,1.0,1.0,30,0.00,,,0.00,Wunderground v.1.15,2013-05-28 08:25:00,
2013-05-28 01:30:00,78.0,44.9,29.63,SSW,203,0.0,0.0,31,0.00,,,0.00,Wunderground v.1.15,2013-05-28 08:30:00,
2013-05-28 01:36:00,78.0,44.9,29.63,NNE,15,0.0,1.0,31,0.00,,,0.00,Wunderground v.1.15,2013-05-28 08:36:00,
2013-05-28 01:41:00,77.9,44.8,29.63,SW,225,0.0,0.0,31,0.00,,,0.00,Wunderground v.1.15,2013-05-28 08:41:00,
2013-05-28 01:46:00,77.8,45.6,29.63,East,80,0.0,2.0,32,0.00,,,0.00,Wunderground v.1.15,2013-05-28 08:46:00,
2013-05-28 01:51:00,78.0,45.7,29.63,West,263,1.0,1.0,32,0.00,,,0.00,Wunderground v.1.15,2013-05-28 08:51:00,
2013-05-28 01:56:00,77.3,46.7,29.63,North,352,0.0,1.0,34,0.00,,,0.00,Wunderground v.1.15,2013-05-28 08:56:00,
2013-05-28 02:01:00,75.2,47.1,29.63,North,5,2.0,2.0,37,0.00,,,0.00,Wunderground v.1.15,2013-05-28 09:01:00,
2013-05-28 02:06:00,73.0,45.9,29.63,ENE,70,0.0,2.0,38,0.00,,,0.00,Wunderground v.1.15,2013-05-28 09:06:00,
2013-05-28 02:11:00,72.6,46.2,29.62,ENE,70,0.0,1.0,39,0.00,,,0.00,Wunderground v.1.15,2013-05-28 09:11:00,
2013-05-28 02:16:00,72.8,46.4,29.62,ENE,74,0.0,1.0,39,0.00,,,0.00,Wunderground v.1.15,2013-05-28 09:16:00,
2013-05-28 02:21:00,72.9,45.8,29.62,East,83,0.0,1.0,38,0.00,,,0.00,Wunderground v.1.15,2013-05-28 09:21:00,
2013-05-28 02:26:00,73.1,45.3,29.62,North,11,2.0,2.0,37,0.00,,,0.00,Wunderground v.1.15,2013-05-28 09:26:00,
2013-05-28 02:31:00,70.5,48.1,29.62,North,359,4.0,4.0,45,0.00,,,0.00,Wunderground v.1.15,2013-05-28 09:31:00,
2013-05-28 02:36:00,68.6,48.7,29.62,NNW,337,1.0,4.0,49,0.00,,,0.00,Wunderground v.1.15,2013-05-28 09:36:00,
2013-05-28 02:41:00,67.9,48.6,29.62,NNE,13,0.0,2.0,50,0.00,,,0.00,Wunderground v.1.15,2013-05-28 09:41:00,
2013-05-28 02:46:00,67.6,48.8,29.62,North,358,2.0,2.0,51,0.00,,,0.00,Wunderground v.1.15,2013-05-28 09:46:00,
2013-05-28 02:51:00,67.1,48.9,29.62,NNE,15,0.0,2.0,52,0.00,,,0.00,Wunderground v.1.15,2013-05-28 09:51:00,
2013-05-28 02:56:00,66.8,50.1,29.62,East,87,0.0,2.0,55,0.00,,,0.00,Wunderground v.1.15,2013-05-28 09:56:00,
2013-05-28 03:01:00,66.9,50.7,29.62,WSW,248,0.0,0.0,56,0.00,,,0.00,Wunderground v.1.15,2013-05-28 10:01:00,
2013-05-28 03:06:00,67.1,50.9,29.62,WSW,245,0.0,1.0,56,0.00,,,0.00,Wunderground v.1.15,2013-05-28 10:06:00,
2013-05-28 03:11:00,67.1,50.9,29.62,WSW,245,0.0,0.0,56,0.00,,,0.00,Wunderground v.1.15,2013-05-28 10:11:00,
2013-05-28 03:16:00,66.9,50.7,29.62,WSW,245,0.0,1.0,56,0.00,,,0.00,Wunderground v.1.15,2013-05-28 10:16:00,
2013-05-28 03:21:00,67.4,49.7,29.62,East,89,0.0,1.0,53,0.00,,,0.00,Wunderground v.1.15,2013-05-28 10:21:00,
2013-05-28 03:26:00,67.9,49.6,29.62,ENE,72,0.0,1.0,52,0.00,,,0.00,Wunderground v.1.15,2013-05-28 10:26:00,
2013-05-28 03:31:00,68.3,50.0,29.62,ENE,75,0.0,0.0,52,0.00,,,0.00,Wunderground v.1.15,2013-05-28 10:31:00,
2013-05-28 03:36:00,68.7,49.8,29.62,East,86,0.0,1.0,51,0.00,,,0.00,Wunderground v.1.15,2013-05-28 10:36:00,
2013-05-28 03:41:00,68.6,49.2,29.62,North,5,0.0,3.0,50,0.00,,,0.00,Wunderground v.1.15,2013-05-28 10:41:00,
2013-05-28 03:46:00,67.9,49.1,29.63,North,4,0.0,3.0,51,0.00,,,0.00,Wunderground v.1.15,2013-05-28 10:46:00,
2013-05-28 03:51:00,68.1,48.8,29.63,ENE,63,0.0,0.0,50,0.00,,,0.00,Wunderground v.1.15,2013-05-28 10:51:00,
2013-05-28 03:56:00,68.2,48.8,29.63,ENE,63,0.0,1.0,50,0.00,,,0.00,Wunderground v.1.15,2013-05-28 10:56:00,
2013-05-28 04:01:00,68.6,48.7,29.62,ESE,114,1.0,2.0,49,0.00,,,0.00,Wunderground v.1.15,2013-05-28 11:01:00,
2013-05-28 04:06:00,69.1,49.1,29.63,ESE,114,0.0,2.0,49,0.00,,,0.00,Wunderground v.1.15,2013-05-28 11:06:00,
2013-05-28 04:11:00,69.3,48.8,29.62,ESE,115,0.0,0.0,48,0.00,,,0.00,Wunderground v.1.15,2013-05-28 11:11:00,
2013-05-28 04:16:00,69.2,48.1,29.62,ESE,115,1.0,1.0,47,0.00,,,0.00,Wunderground v.1.15,2013-05-28 11:16:00,
2013-05-28 04:21:00,69.4,48.3,29.62,ESE,105,0.0,0.0,47,0.00,,,0.00,Wunderground v.1.15,2013-05-28 11:21:00,
2013-05-28 04:26:00,69.4,48.3,29.63,ESE,103,0.0,1.0,47,0.00,,,0.00,Wunderground v.1.15,2013-05-28 11:26:00,
2013-05-28 04:31:00,69.3,48.2,29.62,ESE,103,0.0,0.0,47,0.00,,,0.00,Wunderground v.1.15,2013-05-28 11:31:00,
2013-05-28 04:36:00,69.1,48.0,29.62,ESE,103,0.0,1.0,47,0.00,,,0.00,Wunderground v.1.15,2013-05-28 11:36:00,
2013-05-28 04:41:00,68.0,47.6,29.62,NNW,332,0.0,0.0,48,0.00,,,0.00,Wunderground v.1.15,2013-05-28 11:41:00,
2013-05-28 04:46:00,67.7,47.8,29.62,ENE,75,0.0,2.0,49,0.00,,,0.00,Wunderground v.1.15,2013-05-28 11:46:00,
2013-05-28 04:51:00,68.5,47.5,29.62,ESE,110,0.0,1.0,47,0.00,,,0.00,Wunderground v.1.15,2013-05-28 11:51:00,
2013-05-28 04:56:00,69.0,47.9,29.62,ESE,110,0.0,1.0,47,0.00,,,0.00,Wunderground v.1.15,2013-05-28 11:56:00,
2013-05-28 05:01:00,68.6,48.7,29.63,ESE,110,0.0,1.0,49,0.00,,,0.00,Wunderground v.1.15,2013-05-28 12:01:00,
2013-05-28 05:06:00,67.6,48.8,29.63,NW,325,0.0,3.0,51,0.00,,,0.00,Wunderground v.1.15,2013-05-28 12:06:00,
2013-05-28 05:11:00,66.7,49.5,29.64,North,357,2.0,3.0,54,0.00,,,0.00,Wunderground v.1.15,2013-05-28 12:11:00,
2013-05-28 05:16:00,65.6,49.0,29.64,North,8,0.0,3.0,55,0.00,,,0.00,Wunderground v.1.15,2013-05-28 12:16:00,
2013-05-28 05:21:00,65.1,49.0,29.63,NE,44,0.0,1.0,56,0.00,,,0.00,Wunderground v.1.15,2013-05-28 12:21:00,
2013-05-28 05:26:00,65.2,49.6,29.63,NE,51,0.0,1.0,57,0.00,,,0.00,Wunderground v.1.15,2013-05-28 12:26:00,
2013-05-28 05:31:00,65.5,49.4,29.64,ENE,69,0.0,1.0,56,0.00,,,0.00,Wunderground v.1.15,2013-05-28 12:31:00,
2013-05-28 05:36:00,65.8,49.2,29.63,East,101,1.0,1.0,55,0.00,,,0.00,Wunderground v.1.15,2013-05-28 12:36:00,
2013-05-28 05:41:00,66.3,49.2,29.63,East,100,0.0,1.0,54,0.00,,,0.00,Wunderground v.1.15,2013-05-28 12:41:00,
2013-05-28 05:46:00,66.4,49.2,29.63,ESE,111,0.0,1.0,54,0.00,,,0.00,Wunderground v.1.15,2013-05-28 12:46:00,
2013-05-28 05:51:00,66.8,48.6,29.63,ESE,114,0.0,1.0,52,0.00,,,0.00,Wunderground v.1.15,2013-05-28 12:51:00,
2013-05-28 05:56:00,67.2,47.4,29.63,ESE,111,1.0,2.0,49,0.00,,,0.00,Wunderground v.1.15,2013-05-28 12:56:00,
2013-05-28 06:01:00,67.7,46.2,29.63,East,96,0.0,1.0,46,0.00,,,0.00,Wunderground v.1.15,2013-05-28 13:01:00,
2013-05-28 06:07:00,68.1,47.7,29.63,East,96,0.0,1.0,48,0.00,,,0.00,Wunderground v.1.15,2013-05-28 13:07:00,
2013-05-28 06:12:00,68.4,48.5,29.63,East,96,0.0,1.0,49,0.00,,,0.00,Wunderground v.1.15,2013-05-28 13:12:00,
2013-05-28 06:17:00,68.3,49.5,29.64,East,96,0.0,1.0,51,0.00,,,0.00,Wunderground v.1.15,2013-05-28 13:17:00,
2013-05-28 06:22:00,66.8,50.6,29.64,NNW,348,0.0,0.0,56,0.00,,,0.00,Wunderground v.1.15,2013-05-28 13:22:00,
2013-05-28 06:27:00,66.1,49.9,29.64,NNW,348,0.0,0.0,56,0.00,,,0.00,Wunderground v.1.15,2013-05-28 13:27:00,
2013-05-28 06:32:00,66.7,49.5,29.64,NNW,348,0.0,0.0,54,0.00,,,0.00,Wunderground v.1.15,2013-05-28 13:32:00,
2013-05-28 06:37:00,68.1,48.8,29.64,NNW,348,0.0,1.0,50,0.00,,,0.00,Wunderground v.1.15,2013-05-28 13:37:00,
2013-05-28 06:42:00,69.6,49.0,29.64,NNE,32,0.0,1.0,48,0.00,,,0.00,Wunderground v.1.15,2013-05-28 13:42:00,
2013-05-28 06:47:00,71.0,49.2,29.64,ESE,110,1.0,1.0,46,0.00,,,0.00,Wunderground v.1.15,2013-05-28 13:47:00,
2013-05-28 06:52:00,72.0,47.6,29.63,ESE,110,1.0,1.0,42,0.00,,,0.00,Wunderground v.1.15,2013-05-28 13:52:00,
2013-05-28 06:57:00,73.4,46.9,29.63,ESE,113,1.0,3.0,39,0.00,,,0.00,Wunderground v.1.15,2013-05-28 13:57:00,
2013-05-28 07:01:00,74.5,45.8,29.63,ESE,110,0.0,1.0,36,0.00,,,0.00,Wunderground v.1.15,2013-05-28 14:01:00,
2013-05-28 07:06:00,75.6,46.0,29.63,ESE,110,0.0,1.0,35,0.00,,,0.00,Wunderground v.1.15,2013-05-28 14:06:00,
2013-05-28 07:11:00,76.5,53.6,29.63,NW,315,2.0,3.0,45,0.00,,,0.00,Wunderground v.1.15,2013-05-28 14:11:00,
2013-05-28 07:16:00,75.3,51.9,29.63,NW,315,0.0,3.0,44,0.00,,,0.00,Wunderground v.1.15,2013-05-28 14:16:00,
2013-05-28 07:21:00,74.4,54.0,29.63,WNW,284,2.0,3.0,49,0.00,,,0.00,Wunderground v.1.15,2013-05-28 14:21:00,
2013-05-28 07:26:00,73.5,54.3,29.63,West,276,0.0,3.0,51,0.00,,,0.00,Wunderground v.1.15,2013-05-28 14:26:00,
2013-05-28 07:32:00,73.6,54.9,29.63,NW,316,2.0,5.0,52,0.00,,,0.00,Wunderground v.1.15,2013-05-28 14:32:00,
2013-05-28 07:37:00,73.6,54.4,29.63,NW,314,2.0,5.0,51,0.00,,,0.00,Wunderground v.1.15,2013-05-28 14:37:00,
2013-05-28 07:42:00,73.9,54.6,29.63,NW,307,2.0,2.0,51,0.00,,,0.00,Wunderground v.1.15,2013-05-28 14:42:00,
2013-05-28 07:47:00,74.5,55.2,29.63,NW,304,2.0,2.0,51,0.00,,,0.00,Wunderground v.1.15,2013-05-28 14:47:00,
2013-05-28 07:52:00,75.4,54.3,29.64,West,263,4.0,4.0,48,0.00,,,0.00,Wunderground v.1.15,2013-05-28 14:52:00,
2013-05-28 07:57:00,76.1,57.2,29.64,West,281,4.0,5.0,52,0.00,,,0.00,Wunderground v.1.15,2013-05-28 14:57:00,
2013-05-28 08:02:00,76.4,56.4,29.64,WNW,293,2.0,4.0,50,0.00,,,0.00,Wunderground v.1.15,2013-05-28 15:02:00,
2013-05-28 08:07:00,77.2,53.6,29.64,West,271,4.0,4.0,44,0.00,,,0.00,Wunderground v.1.15,2013-05-28 15:07:00,
2013-05-28 08:12:00,77.7,54.7,29.64,WNW,298,1.0,3.0,45,0.00,,,0.00,Wunderground v.1.15,2013-05-28 15:12:00,
2013-05-28 08:17:00,78.6,52.9,29.64,West,269,2.0,3.0,41,0.00,,,0.00,Wunderground v.1.15,2013-05-28 15:17:00,
2013-05-28 08:22:00,79.3,52.9,29.64,West,277,5.0,6.0,40,0.00,,,0.00,Wunderground v.1.15,2013-05-28 15:22:00,
2013-05-28 08:27:00,79.3,52.9,29.64,West,261,4.0,6.0,40,0.00,,,0.00,Wunderground v.1.15,2013-05-28 15:27:00,
2013-05-28 08:32:00,79.7,53.2,29.64,West,273,3.0,5.0,40,0.00,,,0.00,Wunderground v.1.15,2013-05-28 15:32:00,
2013-05-28 08:37:00,79.8,53.3,29.64,West,274,5.0,7.0,40,0.00,,,0.00,Wunderground v.1.15,2013-05-28 15:37:00,
2013-05-28 08:42:00,79.3,54.9,29.64,West,269,4.0,7.0,43,0.00,,,0.00,Wunderground v.1.15,2013-05-28 15:42:00,
2013-05-28 08:47:00,79.4,53.6,29.64,WSW,256,3.0,7.0,41,0.00,,,0.00,Wunderground v.1.15,2013-05-28 15:47:00,
2013-05-28 08:52:00,80.1,53.6,29.64,SW,227,5.0,7.0,40,0.00,,,0.00,Wunderground v.1.15,2013-05-28 15:52:00,
2013-05-28 08:57:00,80.3,52.4,29.64,West,264,6.0,8.0,38,0.00,,,0.00,Wunderground v.1.15,2013-05-28 15:57:00,
2013-05-28 09:02:00,80.3,51.7,29.64,SW,231,6.0,9.0,37,0.00,,,0.00,Wunderground v.1.15,2013-05-28 16:02:00,
2013-05-28 09:07:00,80.7,51.3,29.65,SW,229,6.0,9.0,36,0.00,,,0.00,Wunderground v.1.15,2013-05-28 16:07:00,
2013-05-28 09:12:00,80.7,52.7,29.65,WNW,285,2.0,7.0,38,0.00,,,0.00,Wunderground v.1.15,2013-05-28 16:12:00,
2013-05-28 09:17:00,81.3,53.3,29.64,SW,231,6.0,7.0,38,0.00,,,0.00,Wunderground v.1.15,2013-05-28 16:17:00,
2013-05-28 09:22:00,81.4,53.4,29.64,West,276,6.0,6.0,38,0.00,,,0.00,Wunderground v.1.15,2013-05-28 16:22:00,
2013-05-28 09:27:00,81.6,54.9,29.64,NW,310,5.0,6.0,40,0.00,,,0.00,Wunderground v.1.15,2013-05-28 16:27:00,
2013-05-28 09:32:00,81.8,55.1,29.65,West,268,3.0,6.0,40,0.00,,,0.00,Wunderground v.1.15,2013-05-28 16:32:00,
2013-05-28 09:37:00,82.5,55.7,29.64,West,268,3.0,6.0,40,0.00,,,0.00,Wunderground v.1.15,2013-05-28 16:37:00,
2013-05-28 09:42:00,83.0,50.9,29.64,West,274,3.0,7.0,33,0.00,,,0.00,Wunderground v.1.15,2013-05-28 16:42:00,
2013-05-28 09:47:00,83.7,53.9,29.64,West,269,1.0,7.0,36,0.00,,,0.00,Wunderground v.1.15,2013-05-28 16:47:00,
2013-05-28 09:52:00,83.9,53.3,29.64,WSW,256,6.0,7.0,35,0.00,,,0.00,Wunderground v.1.15,2013-05-28 16:52:00,
2013-05-28 09:58:00,84.3,55.2,29.64,West,277,4.0,8.0,37,0.00,,,0.00,Wunderground v.1.15,2013-05-28 16:58:00,
2013-05-28 10:03:00,84.4,51.3,29.64,West,271,4.0,11.0,32,0.00,,,0.00,Wunderground v.1.15,2013-05-28 17:03:00,
2013-05-28 10:08:00,84.1,51.1,29.64,WSW,246,1.0,11.0,32,0.00,,,0.00,Wunderground v.1.15,2013-05-28 17:08:00,
2013-05-28 10:13:00,84.7,52.4,29.64,WSW,248,5.0,7.0,33,0.00,,,0.00,Wunderground v.1.15,2013-05-28 17:13:00,
2013-05-28 10:18:00,85.1,50.2,29.64,SW,218,3.0,9.0,30,0.00,,,0.00,Wunderground v.1.15,2013-05-28 17:18:00,
2013-05-28 10:23:00,85.6,48.8,29.64,West,280,4.0,9.0,28,0.00,,,0.00,Wunderground v.1.15,2013-05-28 17:23:00,
2013-05-28 10:28:00,86.1,49.2,29.64,WSW,256,4.0,9.0,28,0.00,,,0.00,Wunderground v.1.15,2013-05-28 17:28:00,
2013-05-28 10:33:00,86.1,47.2,29.64,West,263,4.0,6.0,26,0.00,,,0.00,Wunderground v.1.15,2013-05-28 17:33:00,
2013-05-28 10:38:00,86.6,46.6,29.64,West,280,2.0,6.0,25,0.00,,,0.00,Wunderground v.1.15,2013-05-28 17:38:00,
2013-05-28 10:43:00,86.8,43.4,29.64,WSW,240,4.0,7.0,22,0.00,,,0.00,Wunderground v.1.15,2013-05-28 17:43:00,
2013-05-28 10:48:00,87.2,44.9,29.64,West,262,5.0,7.0,23,0.00,,,0.00,Wunderground v.1.15,2013-05-28 17:48:00,
2013-05-28 10:53:00,87.1,42.4,29.64,West,263,0.0,6.0,21,0.00,,,0.00,Wunderground v.1.15,2013-05-28 17:53:00,
2013-05-28 10:58:00,88.4,42.2,29.64,West,263,4.0,6.0,20,0.00,,,0.00,Wunderground v.1.15,2013-05-28 17:58:00,
2013-05-28 11:03:00,88.4,42.2,29.64,West,260,1.0,5.0,20,0.00,,,0.00,Wunderground v.1.15,2013-05-28 18:03:00,
2013-05-28 11:08:00,88.2,43.3,29.63,West,269,3.0,6.0,21,0.00,,,0.00,Wunderground v.1.15,2013-05-28 18:08:00,
2013-05-28 11:13:00,88.3,42.1,29.63,WSW,255,5.0,7.0,20,0.00,,,0.00,Wunderground v.1.15,2013-05-28 18:13:00,
2013-05-28 11:18:00,88.7,41.1,29.63,West,263,6.0,9.0,19,0.00,,,0.00,Wunderground v.1.15,2013-05-28 18:18:00,
2013-05-28 11:23:00,88.4,42.2,29.63,West,263,3.0,7.0,20,0.00,,,0.00,Wunderground v.1.15,2013-05-28 18:23:00,
2013-05-28 11:29:00,88.1,42.0,29.62,North,5,2.0,7.0,20,0.00,,,0.00,Wunderground v.1.15,2013-05-28 18:29:00,
2013-05-28 11:34:00,88.3,42.1,29.63,West,281,7.0,10.0,20,0.00,,,0.00,Wunderground v.1.15,2013-05-28 18:34:00,
2013-05-28 11:39:00,87.9,44.3,29.63,West,259,8.0,11.0,22,0.00,,,0.00,Wunderground v.1.15,2013-05-28 18:39:00,
2013-05-28 11:44:00,87.5,45.1,29.63,West,273,8.0,11.0,23,0.00,,,0.00,Wunderground v.1.15,2013-05-28 18:44:00,
2013-05-28 11:49:00,87.6,46.3,29.63,West,260,6.0,11.0,24,0.00,,,0.00,Wunderground v.1.15,2013-05-28 18:49:00,
2013-05-28 11:54:00,87.9,44.3,29.63,WNW,301,6.0,9.0,22,0.00,,,0.00,Wunderground v.1.15,2013-05-28 18:54:00,
2013-05-28 11:59:00,87.5,46.3,29.63,West,269,3.0,9.0,24,0.00,,,0.00,Wunderground v.1.15,2013-05-28 18:59:00,
2013-05-28 12:04:00,87.8,45.4,29.62,West,269,5.0,7.0,23,0.00,,,0.00,Wunderground v.1.15,2013-05-28 19:04:00,
2013-05-28 12:09:00,88.5,44.8,29.63,WSW,257,6.0,9.0,22,0.00,,,0.00,Wunderground v.1.15,2013-05-28 19:09:00,
2013-05-28 12:14:00,88.6,44.9,29.63,West,276,5.0,9.0,22,0.00,,,0.00,Wunderground v.1.15,2013-05-28 19:14:00,
2013-05-28 12:19:00,88.6,44.9,29.62,WNW,298,3.0,9.0,22,0.00,,,0.00,Wunderground v.1.15,2013-05-28 19:19:00,
2013-05-28 12:24:00,88.5,46.0,29.62,NW,325,2.0,11.0,23,0.00,,,0.00,Wunderground v.1.15,2013-05-28 19:24:00,
2013-05-28 12:29:00,89.0,46.4,29.63,WNW,285,3.0,11.0,23,0.00,,,0.00,Wunderground v.1.15,2013-05-28 19:29:00,
2013-05-28 12:34:00,89.8,45.9,29.63,WSW,257,5.0,10.0,22,0.00,,,0.00,Wunderground v.1.15,2013-05-28 19:34:00,
2013-05-28 12:39:00,89.6,45.7,29.63,WSW,249,5.0,10.0,22,0.00,,,0.00,Wunderground v.1.15,2013-05-28 19:39:00,
2013-05-28 12:44:00,89.7,45.8,29.62,West,276,6.0,9.0,22,0.00,,,0.00,Wunderground v.1.15,2013-05-28 19:44:00,
2013-05-28 12:49:00,89.7,44.6,29.62,West,259,8.0,10.0,21,0.00,,,0.00,Wunderground v.1.15,2013-05-28 19:49:00,
2013-05-28 12:54:00,89.7,44.6,29.61,SE,136,1.0,11.0,21,0.00,,,0.00,Wunderground v.1.15,2013-05-28 19:54:00,
2013-05-28 12:59:00,90.0,43.5,29.61,West,269,3.0,11.0,20,0.00,,,0.00,Wunderground v.1.15,2013-05-28 19:59:00,
2013-05-28 13:04:00,91.0,44.4,29.61,WSW,257,4.0,10.0,20,0.00,,,0.00,Wunderground v.1.15,2013-05-28 20:04:00,
2013-05-28 13:09:00,91.6,42.1,29.61,WSW,239,2.0,10.0,18,0.00,,,0.00,Wunderground v.1.15,2013-05-28 20:09:00,
2013-05-28 13:14:00,91.0,41.6,29.60,WNW,288,2.0,9.0,18,0.00,,,0.00,Wunderground v.1.15,2013-05-28 20:14:00,
2013-05-28 13:19:00,90.9,42.9,29.60,WSW,258,4.0,9.0,19,0.00,,,0.00,Wunderground v.1.15,2013-05-28 20:19:00,
2013-05-28 13:24:00,91.0,40.1,29.60,WSW,243,2.0,8.0,17,0.00,,,0.00,Wunderground v.1.15,2013-05-28 20:24:00,
2013-05-28 13:29:00,91.8,42.3,29.59,West,263,3.0,8.0,18,0.00,,,0.00,Wunderground v.1.15,2013-05-28 20:29:00,
2013-05-28 13:35:00,92.9,43.1,29.59,South,177,1.0,5.0,18,0.00,,,0.00,Wunderground v.1.15,2013-05-28 20:35:00,
2013-05-28 13:40:00,94.5,41.4,29.58,WSW,256,2.0,6.0,16,0.00,,,0.00,Wunderground v.1.15,2013-05-28 20:40:00,
2013-05-28 13:45:00,93.8,40.8,29.58,SE,127,0.0,9.0,16,0.00,,,0.00,Wunderground v.1.15,2013-05-28 20:45:00,
2013-05-28 13:50:00,92.9,41.7,29.58,West,265,6.0,6.0,17,0.00,,,0.00,Wunderground v.1.15,2013-05-28 20:50:00,
2013-05-28 13:55:00,92.9,41.7,29.58,SE,138,3.0,8.0,17,0.00,,,0.00,Wunderground v.1.15,2013-05-28 20:55:00,
2013-05-28 14:00:00,93.3,40.4,29.58,West,260,8.0,8.0,16,0.00,,,0.00,Wunderground v.1.15,2013-05-28 21:00:00,
2013-05-28 14:05:00,93.2,41.9,29.58,SSE,148,3.0,8.0,17,0.00,,,0.00,Wunderground v.1.15,2013-05-28 21:05:00,
2013-05-28 14:10:00,94.8,39.9,29.58,SW,229,1.0,3.0,15,0.00,,,0.00,Wunderground v.1.15,2013-05-28 21:10:00,
2013-05-28 14:15:00,94.5,39.7,29.57,West,269,3.0,11.0,15,0.00,,,0.00,Wunderground v.1.15,2013-05-28 21:15:00,
2013-05-28 14:20:00,94.7,41.5,29.57,WSW,239,6.0,8.0,16,0.00,,,0.00,Wunderground v.1.15,2013-05-28 21:20:00,
2013-05-28 14:25:00,94.0,42.5,29.56,West,259,1.0,11.0,17,0.00,,,0.00,Wunderground v.1.15,2013-05-28 21:25:00,
2013-05-28 14:30:00,94.7,39.9,29.56,WSW,243,3.0,8.0,15,0.00,,,0.00,Wunderground v.1.15,2013-05-28 21:30:00,
2013-05-28 14:35:00,94.4,39.6,29.57,WSW,252,4.0,12.0,15,0.00,,,0.00,Wunderground v.1.15,2013-05-28 21:35:00,
2013-05-28 14:40:00,94.1,41.1,29.56,West,262,7.0,7.0,16,0.00,,,0.00,Wunderground v.1.15,2013-05-28 21:40:00,
2013-05-28 14:45:00,94.9,40.0,29.56,SSE,167,2.0,8.0,15,0.00,,,0.00,Wunderground v.1.15,2013-05-28 21:45:00,
2013-05-28 14:50:00,94.5,41.4,29.56,WNW,285,5.0,6.0,16,0.00,,,0.00,Wunderground v.1.15,2013-05-28 21:50:00,
2013-05-28 14:55:00,94.4,42.9,29.56,WSW,239,1.0,11.0,17,0.00,,,0.00,Wunderground v.1.15,2013-05-28 21:55:00,
2013-05-28 15:00:00,94.7,41.5,29.56,West,274,8.0,9.0,16,0.00,,,0.00,Wunderground v.1.15,2013-05-28 22:00:00,
2013-05-28 15:05:00,94.1,42.6,29.55,SSW,204,5.0,11.0,17,0.00,,,0.00,Wunderground v.1.15,2013-05-28 22:05:00,
2013-05-28 15:10:00,94.3,41.2,29.55,SSE,148,3.0,10.0,16,0.00,,,0.00,Wunderground v.1.15,2013-05-28 22:10:00,
2013-05-28 15:15:00,93.8,42.4,29.55,WSW,253,8.0,14.0,17,0.00,,,0.00,Wunderground v.1.15,2013-05-28 22:15:00,
2013-05-28 15:20:00,93.6,43.7,29.55,WSW,257,7.0,9.0,18,0.00,,,0.00,Wunderground v.1.15,2013-05-28 22:20:00,
2013-05-28 15:25:00,93.5,42.1,29.55,West,264,9.0,14.0,17,0.00,,,0.00,Wunderground v.1.15,2013-05-28 22:25:00,
2013-05-28 15:30:00,93.6,45.1,29.55,WSW,243,9.0,9.0,19,0.00,,,0.00,Wunderground v.1.15,2013-05-28 22:30:00,
2013-05-28 15:35:00,93.8,45.3,29.55,West,263,8.0,12.0,19,0.00,,,0.00,Wunderground v.1.15,2013-05-28 22:35:00,
2013-05-28 15:40:00,93.8,43.9,29.54,West,266,9.0,12.0,18,0.00,,,0.00,Wunderground v.1.15,2013-05-28 22:40:00,
2013-05-28 15:45:00,93.6,45.1,29.54,WNW,283,7.0,12.0,19,0.00,,,0.00,Wunderground v.1.15,2013-05-28 22:45:00,
2013-05-28 15:50:00,94.1,44.1,29.54,West,262,8.0,10.0,18,0.00,,,0.00,Wunderground v.1.15,2013-05-28 22:50:00,
2013-05-28 15:55:00,94.1,44.1,29.54,West,270,5.0,11.0,18,0.00,,,0.00,Wunderground v.1.15,2013-05-28 22:55:00,
2013-05-28 16:01:00,94.2,45.6,29.54,West,262,5.0,7.0,19,0.00,,,0.00,Wunderground v.1.15,2013-05-28 23:01:00,
2013-05-28 16:06:00,94.7,44.6,29.54,SW,223,8.0,11.0,18,0.00,,,0.00,Wunderground v.1.15,2013-05-28 23:06:00,
2013-05-28 16:11:00,94.6,43.0,29.54,West,276,4.0,7.0,17,0.00,,,0.00,Wunderground v.1.15,2013-05-28 23:11:00,
2013-05-28 16:16:00,95.3,43.6,29.53,WSW,257,5.0,8.0,17,0.00,,,0.00,Wunderground v.1.15,2013-05-28 23:16:00,
2013-05-28 16:21:00,95.9,45.6,29.53,West,259,3.0,5.0,18,0.00,,,0.00,Wunderground v.1.15,2013-05-28 23:21:00,
2013-05-28 16:26:00,95.6,45.3,29.53,WNW,283,3.0,11.0,18,0.00,,,0.00,Wunderground v.1.15,2013-05-28 23:26:00,
2013-05-28 16:31:00,95.9,45.6,29.53,SSW,195,2.0,10.0,18,0.00,,,0.00,Wunderground v.1.15,2013-05-28 23:31:00,
2013-05-28 16:36:00,96.9,44.9,29.53,WSW,243,0.0,10.0,17,0.00,,,0.00,Wunderground v.1.15,2013-05-28 23:36:00,
2013-05-28 16:41:00,97.4,45.3,29.52,SSE,168,4.0,12.0,17,0.00,,,0.00,Wunderground v.1.15,2013-05-28 23:41:00,
2013-05-28 16:46:00,97.3,45.2,29.52,NW,316,1.0,12.0,17,0.00,,,0.00,Wunderground v.1.15,2013-05-28 23:46:00,
2013-05-28 16:51:00,97.0,43.4,29.52,WNW,283,10.0,11.0,16,0.00,,,0.00,Wunderground v.1.15,2013-05-28 23:51:00,
2013-05-28 16:56:00,97.3,43.6,29.52,South,177,4.0,11.0,16,0.00,,,0.00,Wunderground v.1.15,2013-05-28 23:56:00,
2013-05-28 17:01:00,97.4,43.7,29.52,South,176,3.0,6.0,16,0.00,,,0.00,Wunderground v.1.15,2013-05-29 00:01:00,
2013-05-28 17:06:00,97.6,43.8,29.52,SSE,161,2.0,6.0,16,0.00,,,0.00,Wunderground v.1.15,2013-05-29 00:06:00,
2013-05-28 17:11:00,98.0,44.2,29.51,West,278,2.0,5.0,16,0.00,,,0.00,Wunderground v.1.15,2013-05-29 00:11:00,
2013-05-28 17:16:00,98.1,44.2,29.51,NNW,335,2.0,8.0,16,0.00,,,0.00,Wunderground v.1.15,2013-05-29 00:16:00,
2013-05-28 17:21:00,98.4,44.5,29.51,West,259,4.0,4.0,16,0.00,,,0.00,Wunderground v.1.15,2013-05-29 00:21:00,
2013-05-28 17:26:00,98.4,44.5,29.51,East,98,0.0,5.0,16,0.00,,,0.00,Wunderground v.1.15,2013-05-29 00:26:00,
2013-05-28 17:31:00,98.4,44.5,29.51,SE,141,2.0,4.0,16,0.00,,,0.00,Wunderground v.1.15,2013-05-29 00:31:00,
2013-05-28 17:36:00,98.3,44.4,29.51,South,191,3.0,5.0,16,0.00,,,0.00,Wunderground v.1.15,2013-05-29 00:36:00,
2013-05-28 17:41:00,97.6,43.8,29.51,NE,48,3.0,4.0,16,0.00,,,0.00,Wunderground v.1.15,2013-05-29 00:41:00,
2013-05-28 17:46:00,97.7,43.9,29.51,SSW,201,5.0,10.0,16,0.00,,,0.00,Wunderground v.1.15,2013-05-29 00:46:00,
2013-05-28 17:51:00,96.9,44.9,29.51,NNW,335,1.0,4.0,17,0.00,,,0.00,Wunderground v.1.15,2013-05-29 00:51:00,
2013-05-28 17:56:00,97.1,45.0,29.51,WSW,252,1.0,7.0,17,0.00,,,0.00,Wunderground v.1.15,2013-05-29 00:56:00,
2013-05-28 18:01:00,96.9,43.3,29.51,ESE,115,2.0,4.0,16,0.00,,,0.00,Wunderground v.1.15,2013-05-29 01:01:00,
2013-05-28 18:06:00,96.8,43.2,29.50,West,270,2.0,5.0,16,0.00,,,0.00,Wunderground v.1.15,2013-05-29 01:06:00,
2013-05-28 18:11:00,96.6,43.0,29.50,SW,219,1.0,5.0,16,0.00,,,0.00,Wunderground v.1.15,2013-05-29 01:11:00,
2013-05-28 18:16:00,96.7,46.2,29.50,SSE,158,0.0,5.0,18,0.00,,,0.00,Wunderground v.1.15,2013-05-29 01:16:00,
2013-05-28 18:21:00,96.8,44.8,29.50,WNW,287,1.0,2.0,17,0.00,,,0.00,Wunderground v.1.15,2013-05-29 01:21:00,
2013-05-28 18:26:00,96.4,42.9,29.50,SE,130,3.0,7.0,16,0.00,,,0.00,Wunderground v.1.15,2013-05-29 01:26:00,
2013-05-28 18:31:00,96.0,44.2,29.50,North,356,2.0,3.0,17,0.00,,,0.00,Wunderground v.1.15,2013-05-29 01:31:00,
2013-05-28 18:36:00,95.9,44.1,29.50,ESE,116,2.0,7.0,17,0.00,,,0.00,Wunderground v.1.15,2013-05-29 01:36:00,
2013-05-28 18:41:00,95.4,43.7,29.51,WSW,245,1.0,5.0,17,0.00,,,0.00,Wunderground v.1.15,2013-05-29 01:41:00,
2013-05-28 18:46:00,95.0,43.4,29.51,West,263,1.0,6.0,17,0.00,,,0.00,Wunderground v.1.15,2013-05-29 01:46:00,
2013-05-28 18:51:00,94.8,43.2,29.51,WSW,258,3.0,5.0,17,0.00,,,0.00,Wunderground v.1.15,2013-05-29 01:51:00,
2013-05-28 18:56:00,94.5,42.9,29.51,SSE,165,3.0,5.0,17,0.00,,,0.00,Wunderground v.1.15,2013-05-29 01:56:00,
2013-05-28 19:01:00,94.0,42.5,29.51,SW,214,0.0,4.0,17,0.00,,,0.00,Wunderground v.1.15,2013-05-29 02:01:00,
2013-05-28 19:06:00,93.8,43.9,29.51,SW,214,0.0,4.0,18,0.00,,,0.00,Wunderground v.1.15,2013-05-29 02:06:00,
2013-05-28 19:11:00,93.6,43.7,29.50,WNW,283,3.0,3.0,18,0.00,,,0.00,Wunderground v.1.15,2013-05-29 02:11:00,
2013-05-28 19:16:00,93.3,43.5,29.51,SSE,155,2.0,5.0,18,0.00,,,0.00,Wunderground v.1.15,2013-05-29 02:16:00,
2013-05-28 19:21:00,92.8,44.5,29.50,ESE,105,1.0,3.0,19,0.00,,,0.00,Wunderground v.1.15,2013-05-29 02:21:00,
2013-05-28 19:27:00,92.3,42.7,29.50,South,169,2.0,5.0,18,0.00,,,0.00,Wunderground v.1.15,2013-05-29 02:27:00,
2013-05-28 19:32:00,91.8,43.7,29.50,WSW,243,0.0,1.0,19,0.00,,,0.00,Wunderground v.1.15,2013-05-29 02:32:00,
2013-05-28 19:37:00,91.3,44.6,29.51,SSE,152,1.0,4.0,20,0.00,,,0.00,Wunderground v.1.15,2013-05-29 02:37:00,
2013-05-28 19:42:00,90.8,44.2,29.51,NE,53,1.0,2.0,20,0.00,,,0.00,Wunderground v.1.15,2013-05-29 02:42:00,
2013-05-28 19:47:00,90.4,43.9,29.51,West,262,1.0,4.0,20,0.00,,,0.00,Wunderground v.1.15,2013-05-29 02:47:00,
2013-05-28 19:52:00,90.1,43.6,29.51,SE,136,0.0,4.0,20,0.00,,,0.00,Wunderground v.1.15,2013-05-29 02:52:00,
2013-05-28 19:57:00,89.8,43.4,29.52,SSW,210,2.0,5.0,20,0.00,,,0.00,Wunderground v.1.15,2013-05-29 02:57:00,
2013-05-28 20:02:00,89.5,44.4,29.52,SW,233,3.0,4.0,21,0.00,,,0.00,Wunderground v.1.15,2013-05-29 03:02:00,
2013-05-28 20:07:00,89.2,45.4,29.52,East,96,1.0,11.0,22,0.00,,,0.00,Wunderground v.1.15,2013-05-29 03:07:00,
2013-05-28 20:12:00,88.7,46.1,29.52,West,269,0.0,5.0,23,0.00,,,0.00,Wunderground v.1.15,2013-05-29 03:12:00,
2013-05-28 20:17:00,88.1,47.9,29.52,SE,135,0.0,8.0,25,0.00,,,0.00,Wunderground v.1.15,2013-05-29 03:17:00,
2013-05-28 20:22:00,87.5,48.4,29.52,WSW,250,3.0,7.0,26,0.00,,,0.00,Wunderground v.1.15,2013-05-29 03:22:00,
2013-05-28 20:27:00,87.0,48.0,29.52,SW,219,4.0,7.0,26,0.00,,,0.00,Wunderground v.1.15,2013-05-29 03:27:00,
2013-05-28 20:32:00,86.6,47.6,29.52,SW,226,0.0,7.0,26,0.00,,,0.00,Wunderground v.1.15,2013-05-29 03:32:00,
2013-05-28 20:37:00,86.4,47.5,29.53,SSW,207,1.0,7.0,26,0.00,,,0.00,Wunderground v.1.15,2013-05-29 03:37:00,
2013-05-28 20:42:00,86.2,48.3,29.53,SW,229,2.0,3.0,27,0.00,,,0.00,Wunderground v.1.15,2013-05-29 03:42:00,
2013-05-28 20:47:00,86.0,48.1,29.53,WSW,245,1.0,5.0,27,0.00,,,0.00,Wunderground v.1.15,2013-05-29 03:47:00,
2013-05-28 20:52:00,85.7,47.9,29.53,SW,233,1.0,3.0,27,0.00,,,0.00,Wunderground v.1.15,2013-05-29 03:52:00,
2013-05-28 20:57:00,85.4,48.6,29.53,SW,225,0.0,3.0,28,0.00,,,0.00,Wunderground v.1.15,2013-05-29 03:57:00,
2013-05-28 21:01:00,85.3,48.5,29.53,SE,134,0.0,2.0,28,0.00,,,0.00,Wunderground v.1.15,2013-05-29 04:01:00,
2013-05-28 21:06:00,85.0,48.2,29.53,SW,214,2.0,6.0,28,0.00,,,0.00,Wunderground v.1.15,2013-05-29 04:06:00,
2013-05-28 21:11:00,84.6,47.9,29.53,SSE,158,0.0,1.0,28,0.00,,,0.00,Wunderground v.1.15,2013-05-29 04:11:00,
2013-05-28 21:16:00,84.3,48.6,29.53,SE,124,1.0,3.0,29,0.00,,,0.00,Wunderground v.1.15,2013-05-29 04:16:00,
2013-05-28 21:21:00,84.0,48.3,29.53,ESE,120,1.0,2.0,29,0.00,,,0.00,Wunderground v.1.15,2013-05-29 04:21:00,
2013-05-28 21:26:00,83.8,48.1,29.53,West,271,2.0,3.0,29,0.00,,,0.00,Wunderground v.1.15,2013-05-29 04:26:00,
2013-05-28 21:31:00,83.8,47.2,29.53,East,101,0.0,5.0,28,0.00,,,0.00,Wunderground v.1.15,2013-05-29 04:31:00,
2013-05-28 21:36:00,83.8,47.2,29.54,NW,304,0.0,5.0,28,0.00,,,0.00,Wunderground v.1.15,2013-05-29 04:36:00,
2013-05-28 21:41:00,83.8,47.2,29.54,SE,143,3.0,4.0,28,0.00,,,0.00,Wunderground v.1.15,2013-05-29 04:41:00,
2013-05-28 21:46:00,83.9,47.3,29.54,ESE,118,2.0,4.0,28,0.00,,,0.00,Wunderground v.1.15,2013-05-29 04:46:00,
2013-05-28 21:51:00,84.0,47.4,29.54,ESE,122,1.0,2.0,28,0.00,,,0.00,Wunderground v.1.15,2013-05-29 04:51:00,
2013-05-28 21:56:00,84.1,46.5,29.55,SE,136,2.0,4.0,27,0.00,,,0.00,Wunderground v.1.15,2013-05-29 04:56:00,
2013-05-28 22:01:00,84.1,47.5,29.55,SW,226,0.0,3.0,28,0.00,,,0.00,Wunderground v.1.15,2013-05-29 05:01:00,
2013-05-28 22:06:00,84.0,47.4,29.55,East,99,1.0,6.0,28,0.00,,,0.00,Wunderground v.1.15,2013-05-29 05:06:00,
2013-05-28 22:11:00,84.0,47.4,29.55,SSW,203,1.0,3.0,28,0.00,,,0.00,Wunderground v.1.15,2013-05-29 05:11:00,
2013-05-28 22:16:00,83.7,48.1,29.55,WSW,239,0.0,3.0,29,0.00,,,0.00,Wunderground v.1.15,2013-05-29 05:16:00,
2013-05-28 22:21:00,83.2,48.5,29.55,SW,224,0.0,4.0,30,0.00,,,0.00,Wunderground v.1.15,2013-05-29 05:21:00,
2013-05-28 22:26:00,82.8,49.1,29.55,SE,131,0.0,4.0,31,0.00,,,0.00,Wunderground v.1.15,2013-05-29 05:26:00,
2013-05-28 22:31:00,82.3,49.5,29.55,ESE,115,0.0,1.0,32,0.00,,,0.00,Wunderground v.1.15,2013-05-29 05:31:00,
2013-05-28 22:36:00,82.0,47.5,29.55,WSW,240,1.0,3.0,30,0.00,,,0.00,Wunderground v.1.15,2013-05-29 05:36:00,
2013-05-28 22:41:00,81.9,46.5,29.56,ESE,117,0.0,1.0,29,0.00,,,0.00,Wunderground v.1.15,2013-05-29 05:41:00,
2013-05-28 22:46:00,81.8,46.4,29.56,South,177,0.0,3.0,29,0.00,,,0.00,Wunderground v.1.15,2013-05-29 05:46:00,
2013-05-28 22:51:00,81.8,47.3,29.56,SW,215,0.0,3.0,30,0.00,,,0.00,Wunderground v.1.15,2013-05-29 05:51:00,
2013-05-28 22:56:00,82.0,44.7,29.56,South,184,0.0,5.0,27,0.00,,,0.00,Wunderground v.1.15,2013-05-29 05:56:00,
2013-05-28 23:01:00,82.2,44.9,29.56,ESE,120,3.0,4.0,27,0.00,,,0.00,Wunderground v.1.15,2013-05-29 06:01:00,
2013-05-28 23:06:00,82.3,45.0,29.56,SE,143,0.0,6.0,27,0.00,,,0.00,Wunderground v.1.15,2013-05-29 06:06:00,
2013-05-28 23:11:00,82.1,44.8,29.56,South,183,3.0,4.0,27,0.00,,,0.00,Wunderground v.1.15,2013-05-29 06:11:00,
2013-05-28 23:16:00,81.9,43.6,29.56,WSW,245,2.0,5.0,26,0.00,,,0.00,Wunderground v.1.15,2013-05-29 06:16:00,
2013-05-28 23:22:00,81.7,44.5,29.56,SE,127,0.0,2.0,27,0.00,,,0.00,Wunderground v.1.15,2013-05-29 06:22:00,
2013-05-28 23:27:00,81.4,44.2,29.56,SSE,158,0.0,3.0,27,0.00,,,0.00,Wunderground v.1.15,2013-05-29 06:27:00,
2013-05-28 23:32:00,81.2,43.0,29.56,West,276,1.0,1.0,26,0.00,,,0.00,Wunderground v.1.15,2013-05-29 06:32:00,
2013-05-28 23:37:00,80.8,43.7,29.56,East,101,0.0,3.0,27,0.00,,,0.00,Wunderground v.1.15,2013-05-29 06:37:00,
2013-05-28 23:42:00,80.6,42.5,29.56,SW,221,2.0,3.0,26,0.00,,,0.00,Wunderground v.1.15,2013-05-29 06:42:00,
2013-05-28 23:47:00,80.5,41.4,29.56,SW,214,4.0,4.0,25,0.00,,,0.00,Wunderground v.1.15,2013-05-29 06:47:00,
2013-05-28 23:52:00,80.6,42.5,29.56,SSW,200,2.0,5.0,26,0.00,,,0.00,Wunderground v.1.15,2013-05-29 06:52:00,
2013-05-28 23:57:00,80.5,42.4,29.57,South,170,1.0,7.0,26,0.00,,,0.00,Wunderground v.1.15,2013-05-29 06:57:00,